Year,Month,Day,Hour,Minute,Value (Times are PST for temperature in C)
2012,07,31,08,26,13.20
2012,07,31,08,27,13.20
2012,07,31,08,28,13.30
2012,07,31,08,29,13.30
2012,07,31,08,30,13.30
2012,07,31,08,31,13.30
2012,07,31,08,32,13.30
2012,07,31,08,33,13.40
2012,07,31,08,34,13.40
2012,07,31,08,35,13.50
2012,07,31,08,36,13.50
2012,07,31,08,37,13.50
2012,07,31,08,38,13.60
2012,07,31,08,39,13.60
2012,07,31,08,40,13.60
2012,07,31,08,41,13.60
2012,07,31,08,42,13.60
2012,07,31,08,43,13.70
2012,07,31,08,44,13.70
2012,07,31,08,45,13.80
2012,07,31,08,46,13.90
2012,07,31,08,47,13.90
2012,07,31,08,48,14.00
2012,07,31,08,49,14.10
2012,07,31,08,50,14.10
2012,07,31,08,51,14.10
2012,07,31,08,52,14.20
2012,07,31,08,53,14.20
2012,07,31,08,54,14.30
2012,07,31,08,55,14.40
2012,07,31,08,56,14.40
2012,07,31,08,57,14.50
2012,07,31,08,58,14.50
2012,07,31,08,59,14.60
2012,07,31,09,00,14.60
2012,07,31,09,01,14.70
2012,07,31,09,02,14.70
2012,07,31,09,03,14.70
2012,07,31,09,04,14.80
2012,07,31,09,05,14.90
2012,07,31,09,06,15.00
2012,07,31,09,07,15.00
2012,07,31,09,08,15.00
2012,07,31,09,09,15.00
2012,07,31,09,10,15.00
2012,07,31,09,11,15.00
2012,07,31,09,12,15.00
2012,07,31,09,13,15.00
2012,07,31,09,14,15.00
2012,07,31,09,15,15.10
2012,07,31,09,16,15.20
2012,07,31,09,17,15.30
2012,07,31,09,18,15.40
2012,07,31,09,19,15.40
2012,07,31,09,20,15.40
2012,07,31,09,21,15.40
2012,07,31,09,22,15.40
2012,07,31,09,23,15.50
2012,07,31,09,24,15.70
2012,07,31,09,25,15.80
2012,07,31,09,26,15.80
2012,07,31,09,27,15.90
2012,07,31,09,28,16.00
2012,07,31,09,29,16.10
2012,07,31,09,30,16.20
2012,07,31,09,31,16.20
2012,07,31,09,32,16.30
2012,07,31,09,33,16.30
2012,07,31,09,34,16.30
2012,07,31,09,35,16.30
2012,07,31,09,36,16.30
2012,07,31,09,37,16.40
2012,07,31,09,38,16.40
2012,07,31,09,39,16.30
2012,07,31,09,40,16.30
2012,07,31,09,41,16.30
2012,07,31,09,42,16.30
2012,07,31,09,43,16.20
2012,07,31,09,44,16.30
2012,07,31,09,45,16.30
2012,07,31,09,46,16.30
2012,07,31,09,47,16.40
2012,07,31,09,48,16.40
2012,07,31,09,49,16.40
2012,07,31,09,50,16.50
2012,07,31,09,51,16.50
2012,07,31,09,52,16.60
2012,07,31,09,53,16.70
2012,07,31,09,54,16.80
2012,07,31,09,55,16.90
2012,07,31,09,56,16.90
2012,07,31,09,57,17.00
2012,07,31,09,58,17.00
2012,07,31,09,59,17.00
2012,07,31,10,00,17.00
2012,07,31,10,01,17.00
2012,07,31,10,02,17.00
2012,07,31,10,03,16.90
2012,07,31,10,04,16.90
2012,07,31,10,05,16.90
2012,07,31,10,06,16.90
2012,07,31,10,07,17.00
2012,07,31,10,08,17.00
2012,07,31,10,09,17.00
2012,07,31,10,10,17.10
2012,07,31,10,11,17.20
2012,07,31,10,12,17.30
2012,07,31,10,13,17.50
2012,07,31,10,14,17.50
2012,07,31,10,15,17.60
2012,07,31,10,16,17.70
2012,07,31,10,17,17.70
2012,07,31,10,18,17.80
2012,07,31,10,19,17.90
2012,07,31,10,20,18.00
2012,07,31,10,21,18.20
2012,07,31,10,22,18.40
2012,07,31,10,23,18.40
2012,07,31,10,24,18.50
2012,07,31,10,25,18.50
2012,07,31,10,26,18.60
2012,07,31,10,27,18.70
2012,07,31,10,28,18.70
2012,07,31,10,29,18.70
2012,07,31,10,30,18.80
2012,07,31,10,31,18.80
2012,07,31,10,32,18.70
2012,07,31,10,33,18.60
2012,07,31,10,34,18.50
2012,07,31,10,35,18.40
2012,07,31,10,36,18.30
2012,07,31,10,37,18.30
2012,07,31,10,38,18.40
2012,07,31,10,39,18.40
2012,07,31,10,40,18.40
2012,07,31,10,41,18.40
2012,07,31,10,42,18.50
2012,07,31,10,43,18.60
2012,07,31,10,44,18.70
2012,07,31,10,45,18.80
2012,07,31,10,46,18.70
2012,07,31,10,47,18.60
2012,07,31,10,48,18.50
2012,07,31,10,49,18.50
2012,07,31,10,50,18.50
2012,07,31,10,51,18.40
2012,07,31,10,52,18.50
2012,07,31,10,53,18.60
2012,07,31,10,54,18.80
2012,07,31,10,55,18.90
2012,07,31,10,56,19.00
2012,07,31,10,57,19.10
2012,07,31,10,58,19.20
2012,07,31,10,59,19.20
2012,07,31,11,00,19.20
2012,07,31,11,01,19.20
2012,07,31,11,02,19.20
2012,07,31,11,03,19.20
2012,07,31,11,04,19.00
2012,07,31,11,05,19.00
2012,07,31,11,06,19.00
2012,07,31,11,07,19.00
2012,07,31,11,08,18.90
2012,07,31,11,09,18.90
2012,07,31,11,10,18.80
2012,07,31,11,11,18.80
2012,07,31,11,12,18.80
2012,07,31,11,13,18.80
2012,07,31,11,14,18.70
2012,07,31,11,15,18.70
2012,07,31,11,16,18.80
2012,07,31,11,17,18.90
2012,07,31,11,18,19.00
2012,07,31,11,19,19.10
2012,07,31,11,20,19.20
2012,07,31,11,21,19.30
2012,07,31,11,22,19.20
2012,07,31,11,23,19.10
2012,07,31,11,24,19.10
2012,07,31,11,25,19.00
2012,07,31,11,26,19.00
2012,07,31,11,27,19.10
2012,07,31,11,28,19.10
2012,07,31,11,29,19.20
2012,07,31,11,30,19.30
2012,07,31,11,31,19.30
2012,07,31,11,32,19.40
2012,07,31,11,33,19.50
2012,07,31,11,34,19.60
2012,07,31,11,35,19.60
2012,07,31,11,36,19.60
2012,07,31,11,37,19.70
2012,07,31,11,38,19.70
2012,07,31,11,39,19.70
2012,07,31,11,40,19.80
2012,07,31,11,41,19.80
2012,07,31,11,42,19.70
2012,07,31,11,43,19.70
2012,07,31,11,44,19.60
2012,07,31,11,45,19.60
2012,07,31,11,46,19.60
2012,07,31,11,47,19.60
2012,07,31,11,48,19.70
2012,07,31,11,49,19.90
2012,07,31,11,50,20.00
2012,07,31,11,51,20.10
2012,07,31,11,52,20.10
2012,07,31,11,53,20.10
2012,07,31,11,54,20.10
2012,07,31,11,55,20.20
2012,07,31,11,56,20.10
2012,07,31,11,57,20.20
2012,07,31,11,58,20.30
2012,07,31,11,59,20.20
2012,07,31,12,00,20.20
2012,07,31,12,01,20.20
2012,07,31,12,02,20.10
2012,07,31,12,03,20.00
2012,07,31,12,04,19.80
2012,07,31,12,05,19.70
2012,07,31,12,06,19.70
2012,07,31,12,07,19.70
2012,07,31,12,08,19.60
2012,07,31,12,09,19.50
2012,07,31,12,10,19.30
2012,07,31,12,11,19.20
2012,07,31,12,12,19.10
2012,07,31,12,13,19.10
2012,07,31,12,14,19.10
2012,07,31,12,15,19.20
2012,07,31,12,16,19.30
2012,07,31,12,17,19.50
2012,07,31,12,18,19.70
2012,07,31,12,19,19.80
2012,07,31,12,20,19.90
2012,07,31,12,21,19.90
2012,07,31,12,22,20.00
2012,07,31,12,23,20.10
2012,07,31,12,24,20.20
2012,07,31,12,25,20.10
2012,07,31,12,26,20.00
2012,07,31,12,27,20.00
2012,07,31,12,28,20.00
2012,07,31,12,29,20.00
2012,07,31,12,30,20.10
2012,07,31,12,31,20.20
2012,07,31,12,32,20.30
2012,07,31,12,33,20.30
2012,07,31,12,34,20.30
2012,07,31,12,35,20.30
2012,07,31,12,36,20.30
2012,07,31,12,37,20.20
2012,07,31,12,38,20.10
2012,07,31,12,39,20.00
2012,07,31,12,40,19.90
2012,07,31,12,41,19.90
2012,07,31,12,42,19.80
2012,07,31,12,43,19.90
2012,07,31,12,44,19.90
2012,07,31,12,45,20.00
2012,07,31,12,46,19.90
2012,07,31,12,47,19.90
2012,07,31,12,48,19.90
2012,07,31,12,49,19.90
2012,07,31,12,50,19.80
2012,07,31,12,51,19.80
2012,07,31,12,52,19.80
2012,07,31,12,53,19.80
2012,07,31,12,54,19.90
2012,07,31,12,55,19.90
2012,07,31,12,56,19.90
2012,07,31,12,57,20.10
2012,07,31,12,58,20.20
2012,07,31,12,59,20.30
2012,07,31,13,00,20.30
2012,07,31,13,01,20.30
2012,07,31,13,02,20.30
2012,07,31,13,03,20.20
2012,07,31,13,04,20.30
2012,07,31,13,05,20.30
2012,07,31,13,06,20.30
2012,07,31,13,07,20.30
2012,07,31,13,08,20.30
2012,07,31,13,09,20.30
2012,07,31,13,10,20.20
2012,07,31,13,11,20.10
2012,07,31,13,12,20.10
2012,07,31,13,13,20.20
2012,07,31,13,14,20.20
2012,07,31,13,15,20.30
2012,07,31,13,16,20.40
2012,07,31,13,17,20.50
2012,07,31,13,18,20.60
2012,07,31,13,19,20.70
2012,07,31,13,20,20.70
2012,07,31,13,21,20.70
2012,07,31,13,22,20.80
2012,07,31,13,23,20.80
2012,07,31,13,24,20.70
2012,07,31,13,25,20.60
2012,07,31,13,26,20.40
2012,07,31,13,27,20.30
2012,07,31,13,28,20.40
2012,07,31,13,29,20.40
2012,07,31,13,30,20.40
2012,07,31,13,31,20.50
2012,07,31,13,32,20.50
2012,07,31,13,33,20.60
2012,07,31,13,34,20.60
2012,07,31,13,35,20.60
2012,07,31,13,36,20.60
2012,07,31,13,37,20.60
2012,07,31,13,38,20.60
2012,07,31,13,39,20.80
2012,07,31,13,40,20.90
2012,07,31,13,41,21.00
2012,07,31,13,42,21.00
2012,07,31,13,43,21.00
2012,07,31,13,44,21.00
2012,07,31,13,45,20.90
2012,07,31,13,46,20.90
2012,07,31,13,47,20.90
2012,07,31,13,48,20.90
2012,07,31,13,49,20.80
2012,07,31,13,50,20.80
2012,07,31,13,51,20.90
2012,07,31,13,52,20.90
2012,07,31,13,53,20.90
2012,07,31,13,54,20.90
2012,07,31,13,55,20.90
2012,07,31,13,56,20.90
2012,07,31,13,57,20.90
2012,07,31,13,58,20.90
2012,07,31,13,59,20.80
2012,07,31,14,00,20.80
2012,07,31,14,01,20.80
2012,07,31,14,02,20.80
2012,07,31,14,03,20.70
2012,07,31,14,04,20.60
2012,07,31,14,05,20.60
2012,07,31,14,06,20.40
2012,07,31,14,07,20.40
2012,07,31,14,08,20.50
2012,07,31,14,09,20.60
2012,07,31,14,10,20.60
2012,07,31,14,11,20.60
2012,07,31,14,12,20.60
2012,07,31,14,13,20.60
2012,07,31,14,14,20.60
2012,07,31,14,15,20.70
2012,07,31,14,16,20.80
2012,07,31,14,17,20.90
2012,07,31,14,18,20.90
2012,07,31,14,19,20.90
2012,07,31,14,20,20.90
2012,07,31,14,21,20.90
2012,07,31,14,22,20.80
2012,07,31,14,23,20.80
2012,07,31,14,24,20.90
2012,07,31,14,25,21.00
2012,07,31,14,26,21.20
2012,07,31,14,27,21.20
2012,07,31,14,28,21.20
2012,07,31,14,29,21.20
2012,07,31,14,30,21.20
2012,07,31,14,31,21.30
2012,07,31,14,32,21.40
2012,07,31,14,33,21.40
2012,07,31,14,34,21.30
2012,07,31,14,35,21.30
2012,07,31,14,36,21.20
2012,07,31,14,37,21.30
2012,07,31,14,38,21.40
2012,07,31,14,39,21.60
2012,07,31,14,40,21.60
2012,07,31,14,41,21.50
2012,07,31,14,42,21.50
2012,07,31,14,43,21.30
2012,07,31,14,44,21.10
2012,07,31,14,45,21.10
2012,07,31,14,46,21.20
2012,07,31,14,47,21.20
2012,07,31,14,48,21.30
2012,07,31,14,49,21.30
2012,07,31,14,50,21.20
2012,07,31,14,51,21.20
2012,07,31,14,52,21.20
2012,07,31,14,53,21.20
2012,07,31,14,54,21.20
2012,07,31,14,55,21.20
2012,07,31,14,56,21.20
2012,07,31,14,57,21.30
2012,07,31,14,58,21.40
2012,07,31,14,59,21.30
2012,07,31,15,00,21.30
2012,07,31,15,01,21.40
2012,07,31,15,02,21.40
2012,07,31,15,03,21.40
2012,07,31,15,04,21.40
2012,07,31,15,05,21.40
2012,07,31,15,06,21.50
2012,07,31,15,07,21.50
2012,07,31,15,08,21.50
2012,07,31,15,09,21.50
2012,07,31,15,10,21.40
2012,07,31,15,11,21.30
2012,07,31,15,12,21.30
2012,07,31,15,13,21.30
2012,07,31,15,14,21.40
2012,07,31,15,15,21.50
2012,07,31,15,16,21.70
2012,07,31,15,17,21.80
2012,07,31,15,18,21.80
2012,07,31,15,19,21.90
2012,07,31,15,20,22.00
2012,07,31,15,21,22.10
2012,07,31,15,22,22.10
2012,07,31,15,23,22.10
2012,07,31,15,24,21.90
2012,07,31,15,25,21.80
2012,07,31,15,26,21.60
2012,07,31,15,27,21.50
2012,07,31,15,28,21.50
2012,07,31,15,29,21.50
2012,07,31,15,30,21.50
2012,07,31,15,31,21.60
2012,07,31,15,32,21.70
2012,07,31,15,33,21.80
2012,07,31,15,34,21.80
2012,07,31,15,35,21.80
2012,07,31,15,36,21.90
2012,07,31,15,37,21.90
2012,07,31,15,38,21.90
2012,07,31,15,39,21.90
2012,07,31,15,40,21.90
2012,07,31,15,41,21.80
2012,07,31,15,42,21.70
2012,07,31,15,43,21.80
2012,07,31,15,44,21.80
2012,07,31,15,45,21.90
2012,07,31,15,46,22.00
2012,07,31,15,47,22.00
2012,07,31,15,48,21.90
2012,07,31,15,49,21.90
2012,07,31,15,50,22.00
2012,07,31,15,51,22.00
2012,07,31,15,52,21.90
2012,07,31,15,53,21.90
2012,07,31,15,54,21.90
2012,07,31,15,55,21.90
2012,07,31,15,56,21.90
2012,07,31,15,57,22.00
2012,07,31,15,58,22.10
2012,07,31,15,59,22.10
2012,07,31,16,00,22.00
2012,07,31,16,01,21.90
2012,07,31,16,02,21.90
2012,07,31,16,03,21.90
2012,07,31,16,04,22.00
2012,07,31,16,05,22.10
2012,07,31,16,06,22.20
2012,07,31,16,07,22.30
2012,07,31,16,08,22.40
2012,07,31,16,09,22.40
2012,07,31,16,10,22.40
2012,07,31,16,11,22.40
2012,07,31,16,12,22.50
2012,07,31,16,13,22.60
2012,07,31,16,14,22.50
2012,07,31,16,15,22.50
2012,07,31,16,16,22.40
2012,07,31,16,17,22.40
2012,07,31,16,18,22.40
2012,07,31,16,19,22.40
2012,07,31,16,20,22.50
2012,07,31,16,21,22.50
2012,07,31,16,22,22.40
2012,07,31,16,23,22.40
2012,07,31,16,24,22.40
2012,07,31,16,25,22.40
2012,07,31,16,26,22.40
2012,07,31,16,27,22.50
2012,07,31,16,28,22.50
2012,07,31,16,29,22.60
2012,07,31,16,30,22.60
2012,07,31,16,31,22.60
2012,07,31,16,32,22.60
2012,07,31,16,33,22.60
2012,07,31,16,34,22.60
2012,07,31,16,35,22.60
2012,07,31,16,36,22.60
2012,07,31,16,37,22.50
2012,07,31,16,38,22.40
2012,07,31,16,39,22.30
2012,07,31,16,40,22.40
2012,07,31,16,41,22.50
2012,07,31,16,42,22.50
2012,07,31,16,43,22.50
2012,07,31,16,44,22.40
2012,07,31,16,45,22.30
2012,07,31,16,46,22.30
2012,07,31,16,47,22.30
2012,07,31,16,48,22.30
2012,07,31,16,49,22.40
2012,07,31,16,50,22.50
2012,07,31,16,51,22.60
2012,07,31,16,52,22.50
2012,07,31,16,53,22.60
2012,07,31,16,54,22.50
2012,07,31,16,55,22.50
2012,07,31,16,56,22.50
2012,07,31,16,57,22.50
2012,07,31,16,58,22.60
2012,07,31,16,59,22.70
2012,07,31,17,00,22.80
2012,07,31,17,01,22.80
2012,07,31,17,02,22.80
2012,07,31,17,03,22.70
2012,07,31,17,04,22.80
2012,07,31,17,05,22.80
2012,07,31,17,06,22.80
2012,07,31,17,07,22.80
2012,07,31,17,08,22.80
2012,07,31,17,09,22.70
2012,07,31,17,10,22.70
2012,07,31,17,11,22.70
2012,07,31,17,12,22.70
2012,07,31,17,13,22.70
2012,07,31,17,14,22.70
2012,07,31,17,15,22.80
2012,07,31,17,16,22.80
2012,07,31,17,17,22.80
2012,07,31,17,18,22.80
2012,07,31,17,19,22.80
2012,07,31,17,20,22.80
2012,07,31,17,21,22.70
2012,07,31,17,22,22.70
2012,07,31,17,23,22.70
2012,07,31,17,24,22.80
2012,07,31,17,25,22.80
2012,07,31,17,26,22.80
2012,07,31,17,27,22.80
2012,07,31,17,28,22.80
2012,07,31,17,29,22.80
2012,07,31,17,30,22.90
2012,07,31,17,31,23.00
2012,07,31,17,32,23.00
2012,07,31,17,33,23.00
2012,07,31,17,34,23.00
2012,07,31,17,35,23.00
2012,07,31,17,36,23.00
2012,07,31,17,37,22.90
2012,07,31,17,38,22.80
2012,07,31,17,39,22.70
2012,07,31,17,40,22.60
2012,07,31,17,41,22.60
2012,07,31,17,42,22.70
2012,07,31,17,43,22.70
2012,07,31,17,44,22.60
2012,07,31,17,45,22.70
2012,07,31,17,46,22.70
2012,07,31,17,47,22.70
2012,07,31,17,48,22.70
2012,07,31,17,49,22.70
2012,07,31,17,50,22.70
2012,07,31,17,51,22.70
2012,07,31,17,52,22.60
2012,07,31,17,53,22.60
2012,07,31,17,54,22.60
2012,07,31,17,55,22.50
2012,07,31,17,56,22.50
2012,07,31,17,57,22.50
2012,07,31,17,58,22.40
2012,07,31,17,59,22.40
2012,07,31,18,00,22.50
2012,07,31,18,01,22.50
2012,07,31,18,02,22.50
2012,07,31,18,03,22.50
2012,07,31,18,04,22.50
2012,07,31,18,05,22.50
2012,07,31,18,06,22.50
2012,07,31,18,07,22.60
2012,07,31,18,08,22.60
2012,07,31,18,09,22.70
2012,07,31,18,10,22.70
2012,07,31,18,11,22.70
2012,07,31,18,12,22.70
2012,07,31,18,13,22.70
2012,07,31,18,14,22.70
2012,07,31,18,15,22.60
2012,07,31,18,16,22.60
2012,07,31,18,17,22.60
2012,07,31,18,18,22.50
2012,07,31,18,19,22.40
2012,07,31,18,20,22.40
2012,07,31,18,21,22.40
2012,07,31,18,22,22.40
2012,07,31,18,23,22.30
2012,07,31,18,24,22.30
2012,07,31,18,25,22.40
2012,07,31,18,26,22.40
2012,07,31,18,27,22.40
2012,07,31,18,28,22.30
2012,07,31,18,29,22.30
2012,07,31,18,30,22.30
2012,07,31,18,31,22.30
2012,07,31,18,32,22.30
2012,07,31,18,33,22.30
2012,07,31,18,34,22.30
2012,07,31,18,35,22.30
2012,07,31,18,36,22.30
2012,07,31,18,37,22.30
2012,07,31,18,38,22.30
2012,07,31,18,39,22.30
2012,07,31,18,40,22.20
2012,07,31,18,41,22.20
2012,07,31,18,42,22.20
2012,07,31,18,43,22.20
2012,07,31,18,44,22.20
2012,07,31,18,45,22.20
2012,07,31,18,46,22.20
2012,07,31,18,47,22.20
2012,07,31,18,48,22.20
2012,07,31,18,49,22.20
2012,07,31,18,50,22.20
2012,07,31,18,51,22.20
2012,07,31,18,52,22.20
